Starlink 34521

operational
NORAD ID: 64612 Int'l Des: 2025-137 Owner: SPXS Country: US Constellation: starlink
LEOCIRCULAR

About Starlink 34521

Description loading...

Live Position

Loading 3D Globe...

Upcoming Passes

Altitude History

Altitude vs Time

uPlot chart will show altitude changes over time

Two-Line Element Set

1 64612U 25137U 26061.16186976 .00027334 00000-0 93183-3 0 9992
2 64612 53.1597 10.1108 0001024 79.3170 280.7946 15.30192874 39587
Epoch: Mar 2, 2026 • Age: 28 hours

Current Status

Altitude 476.0 km
Velocity 7.63 km/s
Sub-Earth Point 0.60°N, 38.65°W
Launch Date Jun 25, 2025
Age 0.6 years
Type internet

Technical Details

Classification Payload
Mass 575.00 kg
Dry Mass 530.00 kg
Total Mass 575.00 kg
Length 0.30 m
Diameter 4.10 m
Span 29.00 m
Shape Box + pan
Manufacturer SPXS
Bus Type Starlink V2MO
Phase Status In Orbit
Owner/State SPXS/US

Large Constellations

Loading constellations...